EAG5501 SBGR-SBPA

Flight info

Callsign EAG5501
Flight time 1h 14m
Altitude 36000
Route UBSOD UZ38 VUKMO
Aircraft A321/M-SDE3FGHIRWY/LB1

Departure

Time 2026-05-07 20:27
Airport São Paulo/Guarulhos–Governor André Franco Montoro International Airport (SBGR)

Arrival

Time 2026-05-07 21:41
Airport Porto Alegre-Salgado Filho International Airport (SBPA)
Time Latitude Longitude Altitude Speed Heading
2026-05-07 20:19 -23.42864 -46.48349 2461 ft 0 kts 85°
2026-05-07 20:19 -23.42864 -46.48350 2461 ft 1 kts 85°
2026-05-07 20:19 -23.42865 -46.48367 2461 ft 0 kts 86°
2026-05-07 20:22 -23.42867 -46.48390 2461 ft 3 kts 89°
2026-05-07 20:22 -23.42862 -46.48416 2465 ft 3 kts 130°
2026-05-07 20:22 -23.42842 -46.48429 2461 ft 2 kts 177°
2026-05-07 20:23 -23.42838 -46.48429 2461 ft 0 kts 178°
2026-05-07 20:24 -23.42841 -46.48429 2461 ft 3 kts 178°
2026-05-07 20:24 -23.42906 -46.48437 2461 ft 13 kts 200°
2026-05-07 20:24 -23.42986 -46.48451 2466 ft 11 kts 180°
2026-05-07 20:25 -23.43070 -46.48440 2461 ft 18 kts 165°
2026-05-07 20:25 -23.43201 -46.48399 2464 ft 19 kts 160°
2026-05-07 20:25 -23.43310 -46.48363 2463 ft 13 kts 163°
2026-05-07 20:25 -23.43390 -46.48338 2468 ft 11 kts 163°
2026-05-07 20:26 -23.43413 -46.48279 2462 ft 9 kts 77°
2026-05-07 20:26 -23.43375 -46.48136 2463 ft 50 kts 73°
2026-05-07 20:26 -23.43198 -46.47484 2464 ft 126 kts 73°
2026-05-07 20:26 -23.42891 -46.46351 2474 ft 183 kts 71°
2026-05-07 20:27 -23.42532 -46.44964 3089 ft 191 kts 70°
2026-05-07 20:27 -23.42165 -46.43580 3784 ft 189 kts 69°
2026-05-07 20:27 -23.41762 -46.42220 4144 ft 192 kts 67°
2026-05-07 20:27 -23.41324 -46.40777 4274 ft 209 kts 67°
2026-05-07 20:28 -23.40850 -46.39214 4410 ft 223 kts 68°
2026-05-07 20:28 -23.40348 -46.37535 4500 ft 243 kts 69°
2026-05-07 20:28 -23.40077 -46.35621 4674 ft 271 kts 92°
2026-05-07 20:28 -23.40695 -46.33629 5160 ft 288 kts 123°
2026-05-07 20:29 -23.42239 -46.32220 5790 ft 297 kts 156°
2026-05-07 20:29 -23.44270 -46.31882 6450 ft 299 kts 191°
2026-05-07 20:29 -23.46155 -46.32728 7113 ft 294 kts 220°
2026-05-07 20:29 -23.47718 -46.34160 7793 ft 295 kts 226°
2026-05-07 20:30 -23.49176 -46.35706 8491 ft 297 kts 229°
2026-05-07 20:30 -23.50653 -46.37336 9220 ft 300 kts 229°
2026-05-07 20:30 -23.52140 -46.38961 9910 ft 304 kts 228°
2026-05-07 20:30 -23.53656 -46.40580 10281 ft 320 kts 227°
2026-05-07 20:31 -23.55318 -46.42317 10405 ft 342 kts 226°
2026-05-07 20:31 -23.57106 -46.44155 10525 ft 364 kts 225°
2026-05-07 20:31 -23.59011 -46.46084 10629 ft 384 kts 225°
2026-05-07 20:31 -23.61046 -46.48131 10783 ft 402 kts 224°
2026-05-07 20:32 -23.63134 -46.50223 11104 ft 411 kts 224°
2026-05-07 20:32 -23.65254 -46.52348 11561 ft 416 kts 224°
2026-05-07 20:32 -23.67389 -46.54497 12035 ft 420 kts 224°
2026-05-07 20:32 -23.69542 -46.56671 12495 ft 424 kts 224°
2026-05-07 20:33 -23.71690 -46.58849 12903 ft 428 kts 224°
2026-05-07 20:33 -23.73881 -46.61072 13308 ft 432 kts 224°
2026-05-07 20:33 -23.76089 -46.63315 13688 ft 435 kts 224°
2026-05-07 20:33 -23.78315 -46.65575 14050 ft 438 kts 224°
2026-05-07 20:34 -23.80547 -46.67842 14414 ft 440 kts 224°
2026-05-07 20:34 -23.82798 -46.70128 14816 ft 441 kts 224°
2026-05-07 20:34 -23.85047 -46.72414 15210 ft 442 kts 224°
2026-05-07 20:34 -23.87309 -46.74716 15597 ft 444 kts 224°
2026-05-07 20:35 -23.89574 -46.77023 15975 ft 445 kts 224°
2026-05-07 20:35 -23.91843 -46.79333 16333 ft 447 kts 224°
2026-05-07 20:35 -23.94126 -46.81660 16734 ft 448 kts 224°
2026-05-07 20:35 -23.96412 -46.83988 17125 ft 450 kts 224°
2026-05-07 20:36 -23.98710 -46.86327 17526 ft 451 kts 224°
2026-05-07 20:36 -24.01012 -46.88670 17920 ft 453 kts 224°
2026-05-07 20:36 -24.03319 -46.91023 18307 ft 455 kts 224°
2026-05-07 20:36 -24.05633 -46.93387 18641 ft 456 kts 224°
2026-05-07 20:37 -24.07956 -46.95761 19001 ft 456 kts 224°
2026-05-07 20:37 -24.10279 -46.98131 19356 ft 457 kts 225°
2026-05-07 20:37 -24.12606 -47.00506 19719 ft 458 kts 225°
2026-05-07 20:37 -24.14911 -47.02859 20082 ft 458 kts 225°
2026-05-07 20:38 -24.17242 -47.05243 20447 ft 459 kts 225°
2026-05-07 20:38 -24.19577 -47.07634 20817 ft 459 kts 225°
2026-05-07 20:38 -24.21915 -47.10031 21180 ft 460 kts 225°
2026-05-07 20:38 -24.24253 -47.12428 21547 ft 461 kts 225°
2026-05-07 20:39 -24.26688 -47.14709 21873 ft 463 kts 218°
2026-05-07 20:39 -24.29393 -47.16661 22215 ft 465 kts 214°
2026-05-07 20:39 -24.32129 -47.18556 22546 ft 466 kts 214°
2026-05-07 20:39 -24.34874 -47.20455 22866 ft 466 kts 214°
2026-05-07 20:40 -24.37624 -47.22358 23171 ft 467 kts 214°
2026-05-07 20:40 -24.40382 -47.24271 23466 ft 469 kts 214°
2026-05-07 20:40 -24.43140 -47.26186 23747 ft 470 kts 215°
2026-05-07 20:40 -24.45903 -47.28108 24016 ft 471 kts 215°
2026-05-07 20:41 -24.48670 -47.30037 24276 ft 472 kts 215°
2026-05-07 20:41 -24.51435 -47.31971 24531 ft 473 kts 215°
2026-05-07 20:41 -24.54212 -47.33913 24776 ft 473 kts 215°
2026-05-07 20:41 -24.56982 -47.35850 25103 ft 472 kts 215°
2026-05-07 20:42 -24.59748 -47.37780 25452 ft 470 kts 215°
2026-05-07 20:42 -24.62509 -47.39702 25798 ft 468 kts 215°
2026-05-07 20:42 -24.65254 -47.41617 26145 ft 467 kts 215°
2026-05-07 20:42 -24.67989 -47.43525 26497 ft 465 kts 215°
2026-05-07 20:43 -24.70720 -47.45429 26857 ft 464 kts 215°
2026-05-07 20:43 -24.73438 -47.47327 27221 ft 462 kts 215°
2026-05-07 20:43 -24.76151 -47.49221 27590 ft 461 kts 215°
2026-05-07 20:43 -24.78852 -47.51110 27954 ft 459 kts 215°
2026-05-07 20:44 -24.80632 -47.52359 28205 ft 458 kts 216°
2026-05-07 20:44 -24.81539 -47.52996 28330 ft 458 kts 216°
2026-05-07 20:44 -24.89551 -47.58627 29465 ft 453 kts 216°
2026-05-07 20:45 -24.92204 -47.60490 29814 ft 451 kts 216°
2026-05-07 20:45 -24.94846 -47.62344 30156 ft 450 kts 216°
2026-05-07 20:45 -24.97485 -47.64194 30469 ft 448 kts 216°
2026-05-07 20:45 -25.00110 -47.66038 30799 ft 446 kts 216°
2026-05-07 20:46 -25.02692 -47.67857 31131 ft 444 kts 216°
2026-05-07 20:46 -25.05289 -47.69685 31463 ft 442 kts 216°
2026-05-07 20:46 -25.07880 -47.71504 31810 ft 440 kts 216°
2026-05-07 20:46 -25.10459 -47.73317 32153 ft 438 kts 216°
2026-05-07 20:47 -25.13031 -47.75130 32501 ft 437 kts 216°
2026-05-07 20:47 -25.15588 -47.76932 32824 ft 436 kts 216°
2026-05-07 20:47 -25.18143 -47.78735 33144 ft 434 kts 216°
2026-05-07 20:47 -25.20688 -47.80533 33483 ft 432 kts 217°
2026-05-07 20:48 -25.23212 -47.82316 33851 ft 430 kts 216°
2026-05-07 20:48 -25.25727 -47.84094 34165 ft 427 kts 217°
2026-05-07 20:48 -25.28220 -47.85859 34478 ft 425 kts 217°
2026-05-07 20:48 -25.29868 -47.87028 34658 ft 424 kts 217°
2026-05-07 20:49 -25.33178 -47.89372 35044 ft 421 kts 217°
2026-05-07 20:49 -25.35652 -47.91123 35322 ft 420 kts 217°
2026-05-07 20:49 -25.38107 -47.92861 35616 ft 418 kts 217°
2026-05-07 20:49 -25.40523 -47.94574 35836 ft 417 kts 217°
2026-05-07 20:50 -25.42964 -47.96309 35896 ft 416 kts 217°
2026-05-07 20:50 -25.47832 -47.99773 35890 ft 415 kts 217°
2026-05-07 20:51 -25.52683 -48.03233 35890 ft 414 kts 218°
2026-05-07 20:51 -25.57534 -48.06685 35888 ft 414 kts 217°
2026-05-07 20:52 -25.62392 -48.10131 35893 ft 414 kts 217°
2026-05-07 20:52 -25.67239 -48.13577 35889 ft 414 kts 218°
2026-05-07 20:53 -25.72085 -48.17028 35892 ft 414 kts 217°
2026-05-07 20:53 -25.76913 -48.20464 35902 ft 414 kts 218°
2026-05-07 20:54 -25.81773 -48.23923 35905 ft 415 kts 218°
2026-05-07 20:54 -25.86628 -48.27393 35905 ft 415 kts 218°
2026-05-07 20:55 -25.91497 -48.30877 35905 ft 415 kts 218°
2026-05-07 20:55 -25.96365 -48.34355 35899 ft 416 kts 218°
2026-05-07 20:56 -26.01237 -48.37839 35904 ft 416 kts 218°
2026-05-07 20:56 -26.06098 -48.41331 35914 ft 416 kts 218°
2026-05-07 20:57 -26.10940 -48.44809 35911 ft 417 kts 218°
2026-05-07 20:57 -26.15819 -48.48303 35903 ft 417 kts 218°
2026-05-07 20:58 -26.20690 -48.51805 35902 ft 416 kts 218°
2026-05-07 20:58 -26.25560 -48.55307 35902 ft 416 kts 218°
2026-05-07 20:59 -26.30421 -48.58810 35902 ft 416 kts 218°
2026-05-07 20:59 -26.35287 -48.62324 35916 ft 416 kts 219°
2026-05-07 21:00 -26.40149 -48.65839 35922 ft 417 kts 219°
2026-05-07 21:00 -26.44200 -48.68772 35914 ft 417 kts 219°
2026-05-07 21:01 -26.49059 -48.72299 35910 ft 416 kts 219°
2026-05-07 21:01 -26.53894 -48.75855 35897 ft 416 kts 219°
2026-05-07 21:02 -26.58727 -48.79430 35899 ft 416 kts 219°
2026-05-07 21:02 -26.63558 -48.83001 35902 ft 417 kts 219°
2026-05-07 21:03 -26.68400 -48.86579 35911 ft 417 kts 219°
2026-05-07 21:03 -26.73255 -48.90136 35892 ft 417 kts 219°
2026-05-07 21:04 -26.78128 -48.93683 35888 ft 418 kts 219°
2026-05-07 21:04 -26.82997 -48.97229 35881 ft 417 kts 218°
2026-05-07 21:05 -26.87859 -49.00790 35888 ft 418 kts 219°
2026-05-07 21:05 -26.92724 -49.04368 35887 ft 418 kts 219°
2026-05-07 21:06 -26.97594 -49.07939 35892 ft 418 kts 219°
2026-05-07 21:06 -27.02479 -49.11517 35892 ft 419 kts 219°
2026-05-07 21:07 -27.07325 -49.15079 35893 ft 419 kts 219°
2026-05-07 21:07 -27.12201 -49.18667 35895 ft 419 kts 219°
2026-05-07 21:08 -27.17083 -49.22265 35901 ft 419 kts 219°
2026-05-07 21:08 -27.21963 -49.25867 35901 ft 419 kts 219°
2026-05-07 21:09 -27.26842 -49.29470 35903 ft 420 kts 219°
2026-05-07 21:09 -27.31729 -49.33078 35909 ft 420 kts 219°
2026-05-07 21:10 -27.36635 -49.36701 35907 ft 422 kts 219°
2026-05-07 21:10 -27.41547 -49.40338 35902 ft 422 kts 220°
2026-05-07 21:11 -27.46429 -49.43963 35900 ft 423 kts 220°
2026-05-07 21:11 -27.53805 -49.49443 35901 ft 423 kts 220°
2026-05-07 21:12 -27.58716 -49.53101 35920 ft 424 kts 219°
2026-05-07 21:12 -27.63656 -49.56755 35890 ft 425 kts 219°
2026-05-07 21:13 -27.68614 -49.60429 35887 ft 427 kts 219°
2026-05-07 21:13 -27.73579 -49.64117 35888 ft 428 kts 219°
2026-05-07 21:14 -27.78594 -49.67774 35895 ft 429 kts 218°
2026-05-07 21:14 -27.83664 -49.71360 35902 ft 430 kts 218°
2026-05-07 21:15 -27.88748 -49.74959 35939 ft 430 kts 218°
2026-05-07 21:15 -27.93831 -49.78577 35899 ft 432 kts 218°
2026-05-07 21:16 -27.98922 -49.82224 35891 ft 433 kts 218°
2026-05-07 21:16 -28.03991 -49.85863 35897 ft 434 kts 218°
2026-05-07 21:17 -28.09093 -49.89522 35899 ft 434 kts 218°
2026-05-07 21:17 -28.14211 -49.93189 35904 ft 435 kts 218°
2026-05-07 21:18 -28.19321 -49.96865 35901 ft 435 kts 218°
2026-05-07 21:18 -28.24442 -50.00553 35898 ft 436 kts 218°
2026-05-07 21:19 -28.28731 -50.03644 35895 ft 436 kts 218°
2026-05-07 21:19 -28.29564 -50.04244 35900 ft 436 kts 218°
2026-05-07 21:20 -28.44957 -50.15350 35867 ft 438 kts 218°
2026-05-07 21:21 -28.50091 -50.19072 35894 ft 438 kts 219°
2026-05-07 21:21 -28.52665 -50.20934 35741 ft 439 kts 219°
2026-05-07 21:21 -28.54414 -50.22197 35575 ft 440 kts 219°
2026-05-07 21:22 -28.57841 -50.24677 35247 ft 443 kts 219°
2026-05-07 21:22 -28.60452 -50.26574 35009 ft 445 kts 219°
2026-05-07 21:22 -28.63064 -50.28473 34760 ft 447 kts 219°
2026-05-07 21:22 -28.65696 -50.30387 34516 ft 450 kts 219°
2026-05-07 21:23 -28.68339 -50.32312 34270 ft 452 kts 219°
2026-05-07 21:23 -28.70997 -50.34253 33362 ft 458 kts 219°
2026-05-07 21:23 -28.73680 -50.36247 32404 ft 462 kts 220°
2026-05-07 21:23 -28.76324 -50.38362 31475 ft 466 kts 221°
2026-05-07 21:24 -28.78926 -50.40576 30572 ft 469 kts 223°
2026-05-07 21:24 -28.81528 -50.42868 29446 ft 476 kts 223°
2026-05-07 21:24 -28.84148 -50.45198 28360 ft 479 kts 223°
2026-05-07 21:24 -28.86783 -50.47519 27285 ft 479 kts 223°
2026-05-07 21:25 -28.89417 -50.49800 26104 ft 474 kts 223°
2026-05-07 21:25 -28.92078 -50.52079 24935 ft 483 kts 223°
2026-05-07 21:25 -28.94789 -50.54392 23812 ft 489 kts 223°
2026-05-07 21:25 -28.97528 -50.56724 22827 ft 491 kts 223°
2026-05-07 21:26 -29.00257 -50.59042 22014 ft 486 kts 222°
2026-05-07 21:26 -29.02952 -50.61338 21215 ft 481 kts 222°
2026-05-07 21:26 -29.05621 -50.63617 20437 ft 475 kts 222°
2026-05-07 21:26 -29.08209 -50.65805 19702 ft 451 kts 220°
2026-05-07 21:27 -29.10007 -50.67082 19231 ft 453 kts 214°
2026-05-07 21:27 -29.12852 -50.68570 18514 ft 458 kts 205°
2026-05-07 21:27 -29.15981 -50.69549 17730 ft 463 kts 195°
2026-05-07 21:27 -29.20233 -50.69970 16784 ft 463 kts 186°
2026-05-07 21:28 -29.23447 -50.70121 16081 ft 460 kts 186°
2026-05-07 21:28 -29.26628 -50.70287 15392 ft 457 kts 187°
2026-05-07 21:28 -29.29804 -50.70464 14730 ft 455 kts 187°
2026-05-07 21:28 -29.32989 -50.70634 13684 ft 463 kts 186°
2026-05-07 21:29 -29.36183 -50.70786 12466 ft 453 kts 186°
2026-05-07 21:29 -29.39269 -50.70912 11569 ft 431 kts 185°
2026-05-07 21:29 -29.42162 -50.71019 11135 ft 400 kts 186°
2026-05-07 21:29 -29.44834 -50.71115 10878 ft 369 kts 186°
2026-05-07 21:30 -29.47299 -50.71204 10698 ft 341 kts 186°
2026-05-07 21:30 -29.49622 -50.71297 10144 ft 329 kts 187°
2026-05-07 21:30 -29.51167 -50.71369 9881 ft 327 kts 186°
2026-05-07 21:30 -29.51902 -50.71404 9842 ft 324 kts 187°
2026-05-07 21:31 -29.58605 -50.71725 9489 ft 320 kts 186°
2026-05-07 21:31 -29.60825 -50.71827 9359 ft 318 kts 186°
2026-05-07 21:31 -29.63033 -50.71925 9224 ft 318 kts 186°
2026-05-07 21:32 -29.65244 -50.72022 9104 ft 318 kts 186°
2026-05-07 21:32 -29.67457 -50.72117 8965 ft 319 kts 186°
2026-05-07 21:32 -29.69674 -50.72217 8689 ft 318 kts 187°
2026-05-07 21:32 -29.71816 -50.72681 8356 ft 310 kts 204°
2026-05-07 21:33 -29.73722 -50.73736 8028 ft 300 kts 220°
2026-05-07 21:33 -29.75293 -50.75253 7716 ft 292 kts 233°
2026-05-07 21:33 -29.76726 -50.76899 7400 ft 291 kts 232°
2026-05-07 21:33 -29.78165 -50.78537 7079 ft 291 kts 232°
2026-05-07 21:34 -29.79609 -50.80175 6737 ft 292 kts 233°
2026-05-07 21:34 -29.81047 -50.81803 6422 ft 287 kts 233°
2026-05-07 21:34 -29.82469 -50.83410 6108 ft 287 kts 233°
2026-05-07 21:34 -29.83888 -50.85018 5778 ft 285 kts 234°
2026-05-07 21:35 -29.85299 -50.86622 5466 ft 285 kts 233°
2026-05-07 21:36 -29.90678 -50.92468 4299 ft 288 kts 219°
2026-05-07 21:36 -29.92511 -50.93472 3972 ft 293 kts 207°
2026-05-07 21:36 -29.94431 -50.94320 3628 ft 290 kts 207°
2026-05-07 21:36 -29.96246 -50.95120 3308 ft 275 kts 207°
2026-05-07 21:37 -29.97922 -50.96050 3050 ft 253 kts 224°
2026-05-07 21:37 -29.99060 -50.97408 2767 ft 227 kts 246°
2026-05-07 21:37 -29.99657 -50.98959 2517 ft 197 kts 265°
2026-05-07 21:37 -29.99805 -51.00400 2319 ft 163 kts 281°
2026-05-07 21:38 -29.99778 -51.01631 2122 ft 148 kts 282°
2026-05-07 21:38 -29.99754 -51.02804 1945 ft 143 kts 282°
2026-05-07 21:38 -29.99731 -51.03919 1792 ft 139 kts 282°
2026-05-07 21:38 -29.99707 -51.05043 1632 ft 139 kts 282°
2026-05-07 21:39 -29.99685 -51.06137 1482 ft 137 kts 283°
2026-05-07 21:39 -29.99662 -51.07247 1303 ft 138 kts 281°
2026-05-07 21:39 -29.99638 -51.08342 1111 ft 138 kts 279°
2026-05-07 21:39 -29.99615 -51.09470 928 ft 140 kts 277°
2026-05-07 21:40 -29.99591 -51.10605 757 ft 143 kts 276°
2026-05-07 21:40 -29.99567 -51.11764 555 ft 146 kts 274°
2026-05-07 21:40 -29.99548 -51.12932 362 ft 146 kts 275°
2026-05-07 21:40 -29.99522 -51.14106 193 ft 147 kts 274°
2026-05-07 21:41 -29.99501 -51.15287 23 ft 146 kts 274°
2026-05-07 21:41 -29.99476 -51.16349 18 ft 111 kts 271°
2026-05-07 21:41 -29.99464 -51.17022 13 ft 59 kts 271°
2026-05-07 21:41 -29.99456 -51.17430 15 ft 48 kts 271°
2026-05-07 21:42 -29.99440 -51.17698 19 ft 12 kts 317°
2026-05-07 21:42 -29.99355 -51.17704 17 ft 13 kts
2026-05-07 21:42 -29.99263 -51.17701 16 ft 13 kts
2026-05-07 21:42 -29.99175 -51.17698 16 ft 13 kts
2026-05-07 21:43 -29.99095 -51.17686 16 ft 3 kts